Flag for Canada Weather past 2 weeks in Happy Valley-Goose Bay, Newfoundland and Labrador, Canada

12 °F


Feels Like: -3 °F
Forecast: 7 / 36 °F
Wind: 14 mph from Southwest

Location: Goose

Current Time: Nov 26, 2015 at 1:07:50 AM

Latest Report: Nov 26, 2015 at 12:00 AM

Visibility: 15 mi

Pressure: 30.65 "Hg

Humidity: 79%

Dew point: 7 °F

Location of Happy Valley-Goose BayLocation

Historic Weather in Happy Valley-Goose Bay — Graph


Happy Valley-Goose Bay temperature yesterday

Maximum temperature yesterday: 18 °F (at 2:00 AM)
Minimum temperature yesterday: 12 °F (at 8:00 AM)
Average temperature yesterday: 15 °F

Past Weeks' High & Low Weather Summary

High41 °F (Nov 20, 2:00 PM)100% (Nov 13, 12:00 PM)30.63 "Hg (Nov 13, 12:00 PM)
Low5 °F (Nov 11, 8:00 AM)50% (Nov 11, 2:00 PM)29.66 "Hg (Nov 24, 5:00 AM)
Average27 °F82%30.09 "Hg
* Reported Nov 10 11:00 PM — Nov 25 11:00 PM, Happy Valley-Goose Bay, Weather by CustomWeather, © 2015

Note: Actual official high and low records may vary slightly from our data, if they occured in-between our weather recording intervals... More about our weather records


Happy Valley-Goose Bay weather history for previous 24 hours

Time TempWeatherWind HumidityBarometerVisibility
11:00 PM
Wed, Nov 25
12 °FPassing clouds.9 mph79%30.63 "Hg15 mi
10:00 PM14 °FClear.8 mph79%30.62 "Hg15 mi
9:00 PM14 °FPassing clouds.9 mph79%30.60 "Hg15 mi
8:00 PM16 °FPassing clouds.8 mph73%30.58 "Hg15 mi
7:00 PM16 °FPassing clouds.14 mph73%30.55 "Hg15 mi
6:00 PM16 °FPassing clouds.12 mph79%30.53 "Hg15 mi
5:00 PM18 °FPassing clouds.9 mph73%30.49 "Hg15 mi
4:00 PM18 °FPassing clouds.17 mph73%30.45 "Hg15 mi
3:00 PM18 °FPassing clouds.13 mph73%30.43 "Hg15 mi
2:00 PM18 °FPassing clouds.18 mph73%30.41 "Hg15 mi
1:00 PM18 °FPassing clouds.12 mph73%30.40 "Hg15 mi
12:00 PM16 °FPassing clouds.15 mph73%30.40 "Hg15 mi
11:00 AM14 °FLow level haze.24 mph73%30.40 "Hg15 mi
10:00 AM12 °FPassing clouds.21 mph79%30.40 "Hg15 mi
9:00 AM12 °FSunny.16 mph79%30.38 "Hg15 mi
8:00 AM12 °FPassing clouds.9 mph73%30.37 "Hg15 mi
7:00 AM14 °FPassing clouds.15 mph73%30.33 "Hg15 mi
6:00 AM16 °FPassing clouds.12 mph73%30.30 "Hg15 mi
5:00 AM14 °FPassing clouds.6 mph79%30.28 "Hg15 mi
4:00 AM16 °FPassing clouds.7 mph79%30.25 "Hg15 mi
3:00 AM18 °FPassing clouds.7 mph73%30.22 "Hg15 mi
2:00 AM18 °FLight snow. Overcast.7 mph73%30.19 "Hg15 mi
1:00 AM16 °FLight snow. Mostly cloudy.10 mph86%30.14 "Hg12 mi
Weather by CustomWeather, © 2015

See weather overviewHow to use our weather pages